FJI256 NSFA-NGFU

Flight info

Callsign FJI256
Flight time 1h 40m
Altitude 34000
Route IKENA1R IKENA DCT KETUS DCT FU
Aircraft A320/M-SDE3FGHIRWY/LB1

Departure

Time 2026-05-04 22:09
Airport Faleolo International Airport (NSFA)

Arrival

Time 2026-05-04 23:49
Airport Funafuti International Airport (NGFU)
Time Latitude Longitude Altitude Speed Heading
2026-05-04 21:50 -13.83148 -171.99596 -15 ft 0 kts 88°
2026-05-04 21:57 -13.83148 -171.99609 -15 ft 2 kts 88°
2026-05-04 21:57 -13.83149 -171.99620 -15 ft 0 kts 88°
2026-05-04 22:00 -13.83149 -171.99619 -15 ft 1 kts 88°
2026-05-04 22:01 -13.83149 -171.99614 -15 ft 1 kts 87°
2026-05-04 22:01 -13.83138 -171.99601 -15 ft 4 kts 45°
2026-05-04 22:01 -13.83123 -171.99563 -16 ft 10 kts 80°
2026-05-04 22:01 -13.83110 -171.99486 -17 ft 12 kts 60°
2026-05-04 22:02 -13.83030 -171.99462 -17 ft 9 kts 360°
2026-05-04 22:02 -13.82986 -171.99502 -16 ft 10 kts 284°
2026-05-04 22:02 -13.82985 -171.99582 -15 ft 17 kts 268°
2026-05-04 22:02 -13.82988 -171.99718 -13 ft 19 kts 270°
2026-05-04 22:03 -13.82989 -171.99849 -12 ft 19 kts 269°
2026-05-04 22:03 -13.82991 -172.00002 -8 ft 23 kts 269°
2026-05-04 22:03 -13.82993 -172.00173 -5 ft 24 kts 269°
2026-05-04 22:03 -13.82995 -172.00347 -3 ft 24 kts 269°
2026-05-04 22:04 -13.82997 -172.00520 1 ft 24 kts 269°
2026-05-04 22:04 -13.83000 -172.00691 4 ft 24 kts 269°
2026-05-04 22:04 -13.83003 -172.00864 6 ft 24 kts 269°
2026-05-04 22:04 -13.83005 -172.01036 10 ft 24 kts 269°
2026-05-04 22:05 -13.83008 -172.01207 12 ft 24 kts 269°
2026-05-04 22:05 -13.83010 -172.01381 15 ft 25 kts 269°
2026-05-04 22:05 -13.83011 -172.01587 19 ft 31 kts 269°
2026-05-04 22:05 -13.83014 -172.01800 22 ft 29 kts 269°
2026-05-04 22:06 -13.83015 -172.01989 26 ft 24 kts 269°
2026-05-04 22:06 -13.83010 -172.02107 28 ft 12 kts 283°
2026-05-04 22:06 -13.82990 -172.02169 29 ft 6 kts 288°
2026-05-04 22:06 -13.83019 -172.02183 29 ft 8 kts 135°
2026-05-04 22:07 -13.83018 -172.02119 28 ft 10 kts 89°
2026-05-04 22:07 -13.83017 -172.02103 28 ft 0 kts 89°
2026-05-04 22:08 -13.83017 -172.02077 27 ft 20 kts 88°
2026-05-04 22:08 -13.83010 -172.01655 20 ft 94 kts 89°
2026-05-04 22:09 -13.82999 -172.00773 5 ft 150 kts 89°
2026-05-04 22:09 -13.82973 -171.99589 329 ft 168 kts 86°
2026-05-04 22:09 -13.82788 -171.98416 996 ft 169 kts 75°
2026-05-04 22:09 -13.82462 -171.97272 1814 ft 167 kts 72°
2026-05-04 22:10 -13.82121 -171.96089 2526 ft 183 kts 73°
2026-05-04 22:10 -13.81734 -171.94748 3069 ft 206 kts 73°
2026-05-04 22:10 -13.81311 -171.93249 3522 ft 231 kts 73°
2026-05-04 22:10 -13.80850 -171.91573 4062 ft 256 kts 73°
2026-05-04 22:11 -13.80168 -171.89835 4669 ft 266 kts 51°
2026-05-04 22:11 -13.78705 -171.88723 5482 ft 264 kts 16°
2026-05-04 22:11 -13.76900 -171.88672 6293 ft 264 kts 340°
2026-05-04 22:11 -13.75403 -171.89711 7137 ft 264 kts 306°
2026-05-04 22:12 -13.74575 -171.91391 8038 ft 266 kts 288°
2026-05-04 22:12 -13.73971 -171.93213 9046 ft 272 kts 289°
2026-05-04 22:12 -13.73365 -171.95051 10092 ft 270 kts 289°
2026-05-04 22:12 -13.72766 -171.96879 10888 ft 270 kts 289°
2026-05-04 22:13 -13.72154 -171.98711 11565 ft 273 kts 292°
2026-05-04 22:13 -13.71349 -172.00487 12252 ft 275 kts 298°
2026-05-04 22:13 -13.70403 -172.02203 12957 ft 277 kts 301°
2026-05-04 22:13 -13.69405 -172.03907 13668 ft 279 kts 301°
2026-05-04 22:14 -13.68393 -172.05622 14311 ft 282 kts 301°
2026-05-04 22:14 -13.67381 -172.07366 15033 ft 285 kts 301°
2026-05-04 22:14 -13.66372 -172.09131 15690 ft 288 kts 300°
2026-05-04 22:14 -13.65374 -172.10927 16371 ft 293 kts 298°
2026-05-04 22:15 -13.64560 -172.12921 16556 ft 314 kts 288°
2026-05-04 22:15 -13.64020 -172.15162 16690 ft 332 kts 284°
2026-05-04 22:15 -13.63480 -172.17534 16813 ft 349 kts 285°
2026-05-04 22:15 -13.62911 -172.20006 17060 ft 360 kts 285°
2026-05-04 22:16 -13.62328 -172.22527 17516 ft 365 kts 285°
2026-05-04 22:16 -13.61734 -172.25081 18007 ft 369 kts 285°
2026-05-04 22:16 -13.61133 -172.27647 18480 ft 371 kts 285°
2026-05-04 22:16 -13.60527 -172.30243 18913 ft 374 kts 285°
2026-05-04 22:17 -13.59918 -172.32853 19334 ft 377 kts 285°
2026-05-04 22:17 -13.59305 -172.35481 19753 ft 380 kts 285°
2026-05-04 22:17 -13.58685 -172.38133 20162 ft 383 kts 285°
2026-05-04 22:17 -13.58059 -172.40805 20584 ft 386 kts 285°
2026-05-04 22:18 -13.57282 -172.43445 20975 ft 387 kts 293°
2026-05-04 22:18 -13.56049 -172.45913 21382 ft 389 kts 301°
2026-05-04 22:18 -13.54649 -172.48305 21782 ft 392 kts 302°
2026-05-04 22:18 -13.53237 -172.50718 22187 ft 395 kts 302°
2026-05-04 22:19 -13.51817 -172.53144 22577 ft 398 kts 301°
2026-05-04 22:19 -13.50386 -172.55588 22958 ft 401 kts 301°
2026-05-04 22:19 -13.49433 -172.57219 23207 ft 402 kts 301°
2026-05-04 22:19 -13.47988 -172.59693 23569 ft 405 kts 301°
2026-05-04 22:20 -13.46534 -172.62184 23863 ft 408 kts 301°
2026-05-04 22:20 -13.45075 -172.64687 24182 ft 410 kts 301°
2026-05-04 22:20 -13.43603 -172.67206 24496 ft 412 kts 301°
2026-05-04 22:20 -13.42126 -172.69731 24812 ft 414 kts 301°
2026-05-04 22:21 -13.40639 -172.72275 25118 ft 416 kts 302°
2026-05-04 22:21 -13.39145 -172.74826 25416 ft 418 kts 302°
2026-05-04 22:21 -13.37642 -172.77388 25689 ft 420 kts 301°
2026-05-04 22:21 -13.36131 -172.79968 25976 ft 422 kts 301°
2026-05-04 22:22 -13.34613 -172.82556 26267 ft 424 kts 301°
2026-05-04 22:22 -13.33091 -172.85155 26557 ft 426 kts 301°
2026-05-04 22:22 -13.31564 -172.87769 26835 ft 428 kts 301°
2026-05-04 22:22 -13.30030 -172.90391 27132 ft 429 kts 301°
2026-05-04 22:23 -13.28487 -172.93026 27424 ft 431 kts 301°
2026-05-04 22:23 -13.26936 -172.95668 27706 ft 433 kts 301°
2026-05-04 22:23 -13.25380 -172.98322 27984 ft 435 kts 301°
2026-05-04 22:23 -13.23817 -173.00983 28261 ft 437 kts 301°
2026-05-04 22:24 -13.22246 -173.03660 28523 ft 438 kts 301°
2026-05-04 22:24 -13.20672 -173.06343 28775 ft 440 kts 301°
2026-05-04 22:24 -13.19092 -173.09042 29027 ft 442 kts 301°
2026-05-04 22:24 -13.17504 -173.11749 29268 ft 444 kts 301°
2026-05-04 22:25 -13.15905 -173.14465 29527 ft 445 kts 301°
2026-05-04 22:25 -13.14299 -173.17187 29772 ft 446 kts 301°
2026-05-04 22:25 -13.12692 -173.19914 30026 ft 447 kts 301°
2026-05-04 22:25 -13.11082 -173.22647 30240 ft 449 kts 300°
2026-05-04 22:26 -13.09465 -173.25394 30439 ft 450 kts 300°
2026-05-04 22:26 -13.07851 -173.28138 30724 ft 449 kts 300°
2026-05-04 22:26 -13.06246 -173.30873 31017 ft 448 kts 300°
2026-05-04 22:26 -13.04639 -173.33612 31287 ft 447 kts 300°
2026-05-04 22:27 -13.03033 -173.36343 31574 ft 447 kts 300°
2026-05-04 22:27 -13.01431 -173.39063 31874 ft 446 kts 300°
2026-05-04 22:27 -12.99828 -173.41783 32163 ft 445 kts 300°
2026-05-04 22:27 -12.98244 -173.44463 32448 ft 445 kts 300°
2026-05-04 22:28 -12.96640 -173.47174 32732 ft 444 kts 300°
2026-05-04 22:28 -12.95039 -173.49883 33023 ft 444 kts 300°
2026-05-04 22:28 -12.93444 -173.52589 33320 ft 443 kts 300°
2026-05-04 22:28 -12.91854 -173.55290 33641 ft 442 kts 300°
2026-05-04 22:29 -12.90265 -173.57987 33880 ft 441 kts 300°
2026-05-04 22:29 -12.87101 -173.63335 33920 ft 437 kts 300°
2026-05-04 22:30 -12.83956 -173.68658 33934 ft 436 kts 300°
2026-05-04 22:30 -12.80814 -173.73975 33931 ft 436 kts 300°
2026-05-04 22:31 -12.77670 -173.79290 33922 ft 436 kts 300°
2026-05-04 22:31 -12.74529 -173.84603 33926 ft 436 kts 300°
2026-05-04 22:32 -12.71381 -173.89913 33920 ft 436 kts 300°
2026-05-04 22:32 -12.68236 -173.95216 33943 ft 435 kts 300°
2026-05-04 22:33 -12.65097 -174.00501 33940 ft 433 kts 300°
2026-05-04 22:33 -12.61969 -174.05767 33943 ft 432 kts 300°
2026-05-04 22:34 -12.58870 -174.10987 33939 ft 432 kts 300°
2026-05-04 22:34 -12.55749 -174.16241 33938 ft 432 kts 300°
2026-05-04 22:35 -12.52629 -174.21484 33937 ft 431 kts 300°
2026-05-04 22:35 -12.49507 -174.26731 33936 ft 431 kts 300°
2026-05-04 22:36 -12.46405 -174.31976 33929 ft 431 kts 299°
2026-05-04 22:36 -12.43313 -174.37232 33913 ft 431 kts 299°
2026-05-04 22:37 -12.40224 -174.42484 33915 ft 431 kts 299°
2026-05-04 22:37 -12.37124 -174.47733 33912 ft 431 kts 299°
2026-05-04 22:38 -12.34026 -174.52982 33898 ft 431 kts 299°
2026-05-04 22:38 -12.30926 -174.58237 33913 ft 432 kts 299°
2026-05-04 22:39 -12.27822 -174.63500 33916 ft 432 kts 299°
2026-05-04 22:39 -12.24716 -174.68760 33922 ft 432 kts 299°
2026-05-04 22:40 -12.21606 -174.74019 33922 ft 432 kts 300°
2026-05-04 22:40 -12.18495 -174.79272 33917 ft 432 kts 299°
2026-05-04 22:41 -12.15388 -174.84522 33909 ft 432 kts 300°
2026-05-04 22:41 -12.12301 -174.89733 33907 ft 431 kts 300°
2026-05-04 22:42 -12.09195 -174.94979 33910 ft 432 kts 299°
2026-05-04 22:42 -12.06086 -175.00227 33911 ft 432 kts 300°
2026-05-04 22:43 -12.02967 -175.05472 33932 ft 431 kts 299°
2026-05-04 22:43 -11.99855 -175.10698 33921 ft 430 kts 299°
2026-05-04 22:44 -11.96756 -175.15921 33913 ft 430 kts 299°
2026-05-04 22:44 -11.93661 -175.21138 33901 ft 429 kts 299°
2026-05-04 22:45 -11.90564 -175.26351 33906 ft 429 kts 299°
2026-05-04 22:45 -11.85917 -175.34152 33903 ft 429 kts 299°
2026-05-04 22:46 -11.82818 -175.39352 33900 ft 429 kts 299°
2026-05-04 22:46 -11.79717 -175.44555 33903 ft 429 kts 299°
2026-05-04 22:47 -11.76622 -175.49757 33919 ft 429 kts 299°
2026-05-04 22:47 -11.73549 -175.54921 33907 ft 428 kts 299°
2026-05-04 22:48 -11.70453 -175.60111 33901 ft 428 kts 299°
2026-05-04 22:48 -11.67353 -175.65306 33916 ft 429 kts 299°
2026-05-04 22:49 -11.64247 -175.70500 33908 ft 429 kts 300°
2026-05-04 22:49 -11.61141 -175.75698 33912 ft 429 kts 300°
2026-05-04 22:50 -11.58032 -175.80895 33908 ft 429 kts 300°
2026-05-04 22:50 -11.54917 -175.86091 33910 ft 429 kts 300°
2026-05-04 22:51 -11.51803 -175.91295 33907 ft 430 kts 300°
2026-05-04 22:51 -11.48695 -175.96496 33906 ft 430 kts 300°
2026-05-04 22:52 -11.45586 -176.01692 33902 ft 430 kts 300°
2026-05-04 22:52 -11.42467 -176.06893 33907 ft 430 kts 300°
2026-05-04 22:53 -11.39350 -176.12085 33905 ft 429 kts 300°
2026-05-04 22:53 -11.36249 -176.17244 33908 ft 430 kts 300°
2026-05-04 22:54 -11.33114 -176.22473 33906 ft 430 kts 300°
2026-05-04 22:54 -11.30003 -176.27650 33898 ft 431 kts 300°
2026-05-04 22:55 -11.26867 -176.32865 33888 ft 432 kts 300°
2026-05-04 22:55 -11.23706 -176.38122 33889 ft 433 kts 300°
2026-05-04 22:56 -11.20576 -176.43311 33892 ft 433 kts 300°
2026-05-04 22:56 -11.17433 -176.48539 33893 ft 433 kts 300°
2026-05-04 22:57 -11.14289 -176.53770 33897 ft 433 kts 300°
2026-05-04 22:57 -11.11144 -176.58996 33906 ft 433 kts 300°
2026-05-04 22:58 -11.07995 -176.64217 33900 ft 432 kts 300°
2026-05-04 22:58 -11.04847 -176.69433 33905 ft 432 kts 300°
2026-05-04 22:59 -11.01707 -176.74645 33908 ft 432 kts 300°
2026-05-04 22:59 -10.98564 -176.79854 33908 ft 432 kts 300°
2026-05-04 23:00 -10.95415 -176.85058 33905 ft 432 kts 300°
2026-05-04 23:00 -10.92273 -176.90257 33904 ft 431 kts 300°
2026-05-04 23:01 -10.89130 -176.95459 33900 ft 431 kts 300°
2026-05-04 23:01 -10.85984 -177.00654 33905 ft 431 kts 300°
2026-05-04 23:02 -10.82845 -177.05841 33901 ft 431 kts 300°
2026-05-04 23:02 -10.79709 -177.11031 33901 ft 430 kts 300°
2026-05-04 23:03 -10.76567 -177.16213 33904 ft 430 kts 300°
2026-05-04 23:03 -10.73425 -177.21393 33901 ft 430 kts 300°
2026-05-04 23:04 -10.70283 -177.26567 33895 ft 430 kts 300°
2026-05-04 23:04 -10.67142 -177.31744 33893 ft 430 kts 300°
2026-05-04 23:05 -10.63993 -177.36917 33903 ft 430 kts 300°
2026-05-04 23:05 -10.60879 -177.42054 33898 ft 430 kts 300°
2026-05-04 23:06 -10.57743 -177.47226 33894 ft 429 kts 300°
2026-05-04 23:06 -10.54608 -177.52388 33880 ft 430 kts 300°
2026-05-04 23:07 -10.51466 -177.57559 33881 ft 430 kts 300°
2026-05-04 23:07 -10.48311 -177.62732 33881 ft 431 kts 300°
2026-05-04 23:08 -10.45159 -177.67910 33884 ft 431 kts 300°
2026-05-04 23:08 -10.42009 -177.73092 33893 ft 431 kts 300°
2026-05-04 23:09 -10.38848 -177.78270 33894 ft 431 kts 300°
2026-05-04 23:09 -10.36223 -177.82565 33897 ft 431 kts 300°
2026-05-04 23:10 -10.33073 -177.87732 33894 ft 430 kts 300°
2026-05-04 23:10 -10.29922 -177.92905 33892 ft 430 kts 300°
2026-05-04 23:11 -10.26772 -177.98067 33894 ft 430 kts 300°
2026-05-04 23:11 -10.23616 -178.03227 33892 ft 430 kts 300°
2026-05-04 23:12 -10.20461 -178.08392 33893 ft 430 kts 300°
2026-05-04 23:12 -10.17313 -178.13556 33880 ft 431 kts 300°
2026-05-04 23:13 -10.14154 -178.18735 33878 ft 432 kts 300°
2026-05-04 23:13 -10.10986 -178.23911 33879 ft 432 kts 300°
2026-05-04 23:14 -10.07806 -178.29090 33876 ft 433 kts 300°
2026-05-04 23:14 -10.04647 -178.34243 33881 ft 433 kts 300°
2026-05-04 23:15 -10.01450 -178.39462 33888 ft 433 kts 300°
2026-05-04 23:15 -9.98299 -178.44620 33890 ft 433 kts 300°
2026-05-04 23:16 -9.95119 -178.49805 33895 ft 433 kts 300°
2026-05-04 23:16 -9.91935 -178.54990 33891 ft 433 kts 300°
2026-05-04 23:17 -9.88752 -178.60182 33888 ft 433 kts 300°
2026-05-04 23:17 -9.85566 -178.65369 33887 ft 434 kts 300°
2026-05-04 23:18 -9.82377 -178.70565 33883 ft 433 kts 300°
2026-05-04 23:18 -9.79188 -178.75755 33878 ft 434 kts 300°
2026-05-04 23:19 -9.76184 -178.81052 33888 ft 433 kts 296°
2026-05-04 23:19 -9.73426 -178.86487 33881 ft 433 kts 295°
2026-05-04 23:20 -9.70674 -178.91931 33545 ft 434 kts 296°
2026-05-04 23:20 -9.69274 -178.94638 33135 ft 434 kts 296°
2026-05-04 23:20 -9.67858 -178.97351 32735 ft 435 kts 296°
2026-05-04 23:21 -9.66435 -179.00062 32338 ft 436 kts 297°
2026-05-04 23:21 -9.65008 -179.02775 31942 ft 437 kts 297°
2026-05-04 23:21 -9.63576 -179.05502 31571 ft 439 kts 297°
2026-05-04 23:21 -9.62145 -179.08229 31191 ft 437 kts 297°
2026-05-04 23:22 -9.60722 -179.10944 30814 ft 435 kts 297°
2026-05-04 23:22 -9.59308 -179.13647 30453 ft 433 kts 297°
2026-05-04 23:22 -9.57901 -179.16340 30089 ft 431 kts 297°
2026-05-04 23:22 -9.56507 -179.19015 29687 ft 429 kts 297°
2026-05-04 23:23 -9.55119 -179.21679 29268 ft 427 kts 297°
2026-05-04 23:23 -9.53732 -179.24332 28849 ft 424 kts 297°
2026-05-04 23:23 -9.52349 -179.26966 28436 ft 422 kts 297°
2026-05-04 23:23 -9.50971 -179.29588 28031 ft 420 kts 297°
2026-05-04 23:24 -9.49600 -179.32193 27633 ft 419 kts 297°
2026-05-04 23:24 -9.48236 -179.34791 27237 ft 417 kts 296°
2026-05-04 23:24 -9.46883 -179.37376 26849 ft 415 kts 296°
2026-05-04 23:24 -9.45536 -179.39953 26455 ft 413 kts 297°
2026-05-04 23:25 -9.44187 -179.42526 26131 ft 412 kts 296°
2026-05-04 23:25 -9.42846 -179.45085 25863 ft 411 kts 296°
2026-05-04 23:25 -9.41507 -179.47640 25596 ft 410 kts 296°
2026-05-04 23:25 -9.40167 -179.50189 25309 ft 409 kts 296°
2026-05-04 23:26 -9.38831 -179.52731 25032 ft 408 kts 296°
2026-05-04 23:26 -9.37502 -179.55261 24762 ft 407 kts 296°
2026-05-04 23:26 -9.36175 -179.57787 24496 ft 406 kts 296°
2026-05-04 23:26 -9.34851 -179.60306 24230 ft 405 kts 296°
2026-05-04 23:27 -9.33528 -179.62820 24025 ft 404 kts 296°
2026-05-04 23:27 -9.32213 -179.65327 23760 ft 403 kts 296°
2026-05-04 23:27 -9.30897 -179.67829 23472 ft 402 kts 296°
2026-05-04 23:27 -9.29589 -179.70316 23142 ft 400 kts 296°
2026-05-04 23:28 -9.28283 -179.72801 22805 ft 398 kts 296°
2026-05-04 23:28 -9.27003 -179.75236 22478 ft 396 kts 296°
2026-05-04 23:28 -9.25712 -179.77689 22157 ft 394 kts 296°
2026-05-04 23:28 -9.24425 -179.80131 21829 ft 392 kts 296°
2026-05-04 23:29 -9.23145 -179.82560 21508 ft 390 kts 296°
2026-05-04 23:29 -9.21873 -179.84978 21190 ft 388 kts 296°
2026-05-04 23:29 -9.20612 -179.87383 20880 ft 386 kts 296°
2026-05-04 23:29 -9.19356 -179.89775 20570 ft 384 kts 296°
2026-05-04 23:30 -9.18104 -179.92153 20267 ft 382 kts 297°
2026-05-04 23:30 -9.16857 -179.94521 19960 ft 380 kts 297°
2026-05-04 23:30 -9.15619 -179.96874 19668 ft 378 kts 297°
2026-05-04 23:30 -9.14388 -179.99220 19371 ft 377 kts 297°
2026-05-04 23:31 -9.13159 179.98444 19068 ft 375 kts 297°
2026-05-04 23:31 -9.11928 179.96116 18773 ft 374 kts 297°
2026-05-04 23:31 -9.10702 179.93807 18490 ft 372 kts 297°
2026-05-04 23:31 -9.09482 179.91505 18203 ft 370 kts 297°
2026-05-04 23:32 -9.08269 179.89209 17873 ft 369 kts 297°
2026-05-04 23:32 -9.07060 179.86919 17544 ft 368 kts 297°
2026-05-04 23:32 -9.05862 179.84643 17217 ft 366 kts 297°
2026-05-04 23:32 -9.04665 179.82377 16894 ft 364 kts 297°
2026-05-04 23:33 -9.03477 179.80127 16577 ft 362 kts 297°
2026-05-04 23:33 -9.02294 179.77889 16262 ft 360 kts 297°
2026-05-04 23:33 -9.01117 179.75659 15952 ft 358 kts 297°
2026-05-04 23:33 -8.99948 179.73440 15642 ft 356 kts 297°
2026-05-04 23:34 -8.98785 179.71234 15336 ft 354 kts 297°
2026-05-04 23:34 -8.97627 179.69042 15036 ft 353 kts 297°
2026-05-04 23:34 -8.96473 179.66864 14733 ft 351 kts 297°
2026-05-04 23:34 -8.95324 179.64696 14443 ft 349 kts 297°
2026-05-04 23:35 -8.94276 179.62487 14128 ft 347 kts 292°
2026-05-04 23:35 -8.93379 179.60241 13789 ft 342 kts 291°
2026-05-04 23:35 -8.92509 179.58020 13410 ft 338 kts 290°
2026-05-04 23:35 -8.91889 179.55735 12951 ft 336 kts 282°
2026-05-04 23:36 -8.91418 179.53431 12532 ft 333 kts 281°
2026-05-04 23:36 -8.90965 179.51168 12202 ft 321 kts 281°
2026-05-04 23:36 -8.90535 179.49017 11892 ft 305 kts 281°
2026-05-04 23:36 -8.90125 179.46969 11581 ft 291 kts 281°
2026-05-04 23:37 -8.89736 179.45033 11276 ft 279 kts 281°
2026-05-04 23:37 -8.89359 179.43154 10971 ft 268 kts 281°
2026-05-04 23:37 -8.88995 179.41348 10710 ft 256 kts 281°
2026-05-04 23:37 -8.88646 179.39619 10460 ft 247 kts 281°
2026-05-04 23:38 -8.88304 179.37931 10211 ft 245 kts 281°
2026-05-04 23:38 -8.87963 179.36248 9942 ft 244 kts 281°
2026-05-04 23:38 -8.87622 179.34568 9665 ft 243 kts 281°
2026-05-04 23:38 -8.87283 179.32897 9394 ft 241 kts 281°
2026-05-04 23:39 -8.86947 179.31243 9138 ft 239 kts 281°
2026-05-04 23:39 -8.86614 179.29607 8889 ft 237 kts 281°
2026-05-04 23:39 -8.86284 179.27981 8646 ft 235 kts 281°
2026-05-04 23:39 -8.85956 179.26368 8405 ft 233 kts 281°
2026-05-04 23:40 -8.85634 179.24780 8224 ft 228 kts 281°
2026-05-04 23:40 -8.85317 179.23228 8060 ft 223 kts 281°
2026-05-04 23:40 -8.85008 179.21707 7891 ft 219 kts 281°
2026-05-04 23:40 -8.84707 179.20220 7740 ft 212 kts 281°
2026-05-04 23:41 -8.84416 179.18788 7508 ft 205 kts 281°
2026-05-04 23:41 -8.84099 179.17408 7262 ft 200 kts 290°
2026-05-04 23:41 -8.83321 179.16276 7018 ft 197 kts 320°
2026-05-04 23:41 -8.82134 179.15615 6786 ft 194 kts 335°
2026-05-04 23:42 -8.80912 179.15045 6588 ft 193 kts 334°
2026-05-04 23:42 -8.79692 179.14476 6352 ft 192 kts 335°
2026-05-04 23:42 -8.78479 179.13911 6095 ft 192 kts 335°
2026-05-04 23:42 -8.77266 179.13348 5832 ft 191 kts 335°
2026-05-04 23:43 -8.76057 179.12786 5575 ft 191 kts 335°
2026-05-04 23:43 -8.74854 179.12226 5318 ft 191 kts 335°
2026-05-04 23:43 -8.73650 179.11667 5066 ft 190 kts 335°
2026-05-04 23:43 -8.72453 179.11109 4814 ft 189 kts 335°
2026-05-04 23:44 -8.71262 179.10553 4554 ft 188 kts 335°
2026-05-04 23:44 -8.70072 179.10001 4297 ft 188 kts 335°
2026-05-04 23:44 -8.68883 179.09451 4046 ft 188 kts 335°
2026-05-04 23:44 -8.67698 179.08901 3794 ft 186 kts 335°
2026-05-04 23:45 -8.66547 179.08369 3548 ft 178 kts 338°
2026-05-04 23:45 -8.65354 179.08180 3309 ft 174 kts
2026-05-04 23:45 -8.64248 179.08583 3079 ft 171 kts 37°
2026-05-04 23:45 -8.63358 179.09379 2841 ft 171 kts 44°
2026-05-04 23:46 -8.62493 179.10194 2611 ft 170 kts 44°
2026-05-04 23:46 -8.61631 179.11004 2375 ft 168 kts 43°
2026-05-04 23:46 -8.60777 179.11804 2139 ft 166 kts 44°
2026-05-04 23:46 -8.59955 179.12576 1920 ft 157 kts 43°
2026-05-04 23:47 -8.59184 179.13299 1717 ft 147 kts 44°
2026-05-04 23:47 -8.58451 179.13986 1512 ft 142 kts 44°
2026-05-04 23:47 -8.57732 179.14661 1316 ft 141 kts 44°
2026-05-04 23:47 -8.57021 179.15330 1117 ft 140 kts 44°
2026-05-04 23:48 -8.56315 179.15998 944 ft 138 kts 44°
2026-05-04 23:48 -8.55613 179.16662 751 ft 137 kts 44°
2026-05-04 23:48 -8.54920 179.17323 560 ft 137 kts 43°
2026-05-04 23:48 -8.54210 179.17969 368 ft 138 kts 42°
2026-05-04 23:49 -8.53522 179.18629 218 ft 136 kts 42°
2026-05-04 23:49 -8.52825 179.19272 32 ft 135 kts 42°
2026-05-04 23:49 -8.52232 179.19829 15 ft 82 kts 43°
2026-05-04 23:49 -8.52005 179.20044 13 ft 18 kts 43°
2026-05-04 23:50 -8.51944 179.20107 13 ft 9 kts 53°
2026-05-04 23:50 -8.51913 179.20131 12 ft 5 kts 348°
2026-05-04 23:50 -8.51918 179.20114 13 ft 1 kts 213°
2026-05-04 23:50 -8.51945 179.20099 13 ft 10 kts 211°
2026-05-04 23:51 -8.51992 179.20060 13 ft 8 kts 222°
2026-05-04 23:51 -8.52031 179.20023 13 ft 8 kts 223°
2026-05-04 23:51 -8.52080 179.19976 14 ft 10 kts 223°
2026-05-04 23:51 -8.52129 179.19931 15 ft 8 kts 223°
2026-05-04 23:52 -8.52176 179.19887 15 ft 11 kts 223°
2026-05-04 23:52 -8.52230 179.19836 17 ft 12 kts 223°
2026-05-04 23:52 -8.52300 179.19769 14 ft 15 kts 223°
2026-05-04 23:52 -8.52378 179.19697 15 ft 15 kts 223°
2026-05-04 23:53 -8.52447 179.19632 13 ft 10 kts 222°
2026-05-04 23:53 -8.52495 179.19588 12 ft 7 kts 223°
2026-05-04 23:53 -8.52502 179.19563 11 ft 3 kts 284°
2026-05-04 23:53 -8.52492 179.19543 11 ft 2 kts 293°
2026-05-04 23:54 -8.52491 179.19540 11 ft 0 kts 293°